User: anonymous   Login
Location: *
(39.6167°S, 171.5333°W)
Time: 01:52:38
(UTC+00:00)
Language:

Cosmos 2058 Rocket - Orbit

View from above orbital plane
View from above orbital plane
View from above satellite
View from above satellite

Ground track
Ground track

The orbit data is extracted from the following two-line orbital elements,

1 20466U 90010B   21208.54427993  .00000081  00000-0  73059-5 0  9992
2 20466  82.5016  47.6599 0022070  87.0494 273.3245 14.81431286678707
Epoch (UTC): 27 July 2021 13:03:45
Eccentricity: 0.0022070
inclination: 82.5016°
perigee height: 609 km
apogee height: 640 km
right ascension of ascending node: 47.6599°
argument of perigee: 87.0494°
revolutions per day: 14.81431286
mean anomaly at epoch: 273.3245°
orbit number at epoch: 67870

The dashed part of the orbit path shows where the satellite is in the earth's shadow,  

DLR